Date,TemperatureHighF,TemperatureAvgF,TemperatureLowF,DewpointHighF,DewpointAvgF,DewpointLowF,HumidityHigh,HumidityAvg,HumidityLow,PressureMaxIn,PressureMinIn,WindSpeedMaxMPH,WindSpeedAvgMPH,GustSpeedMaxMPH,PrecipitationSumIn
2013-1-1,29.0,24.4,21.2,25.5,22.4,19.3,93,92,87,29.72,29.15,2,0,2,0.00
2013-1-2,22.5,12.9,5.4,20.7,10.4,2.5,93,90,87,29.54,29.18,0,0,0,0.00
2013-1-3,12.6,10.1,7.6,10.3,7.5,4.5,91,89,88,29.66,29.55,0,0,0,0.00
2013-1-4,11.9,5.7,-1.3,9.5,2.7,-4.9,90,87,84,29.84,29.63,1,0,1,0.00
2013-1-5,3.2,-1.5,-5.8,0.2,-5.0,-9.7,87,85,83,29.84,29.40,0,0,0,0.00
2013-1-6,7.2,1.6,-4.7,4.3,-1.6,-8.6,88,86,83,29.41,29.25,0,0,0,0.00
2013-1-7,-6.8,-10.5,-14.2,-10.8,-14.6,-18.4,83,82,80,29.52,29.36,0,0,0,0.00
2013-1-8,0.2,-5.7,-18.0,-3.3,-9.5,-22.6,85,83,79,30.11,29.53,0,0,0,0.00
2013-1-9,-1.3,-7.7,-12.6,-4.8,-11.5,-16.8,85,83,81,30.18,29.91,0,0,0,0.00
2013-1-10,10.6,-0.7,-9.7,8.0,-4.1,-13.5,89,85,83,30.07,29.89,0,0,0,0.00
2013-1-11,14.0,13.3,12.2,12.0,10.8,9.5,91,89,89,30.19,30.07,0,0,0,0.00
2013-1-12,20.2,16.5,13.7,18.2,14.3,11.3,93,91,90,30.19,29.72,2,0,2,0.00
2013-1-13,30.8,27.6,18.9,29.6,26.2,16.9,96,94,92,29.76,29.52,0,0,0,0.00
2013-1-14,34.4,30.7,26.8,33.6,29.6,25.3,97,96,95,29.83,29.21,2,0,2,0.01
2013-1-15,29.5,14.5,6.1,27.7,12.0,3.5,93,89,88,30.22,29.85,0,0,0,0.00
2013-1-16,6.8,1.9,-4.7,4.0,-1.3,-8.4,88,87,84,30.22,29.85,0,0,0,0.00
2013-1-17,7.4,-4.8,-13.1,4.5,-8.3,-17.4,88,85,81,30.18,29.80,0,0,0,0.00
2013-1-18,-11.9,-21.2,-27.5,-15.8,-25.8,-32.7,83,79,76,30.43,30.18,0,0,0,0.00
2013-1-19,7.9,0.5,-15.7,-0.2,-5.3,-20.2,87,77,63,30.43,30.10,0,0,0,0.00
2013-1-20,11.7,8.9,2.2,8.0,4.7,-3.2,87,83,73,30.11,30.02,0,0,0,0.00
2013-1-21,11.9,9.4,3.4,7.7,5.6,-0.4,87,84,80,30.14,30.06,0,0,0,0.00
2013-1-22,9.9,8.4,7.2,4.1,2.9,1.8,79,78,77,29.81,29.75,2,0,2,0.00
2013-1-23,9.4,7.2,4.0,2.7,-0.7,-5.6,78,70,63,29.74,29.62,6,1,6,0.00
2013-1-24,3.4,-2.7,-10.1,-3.6,-7.7,-14.6,83,79,66,29.85,29.68,4,1,4,0.00
2013-1-25,-9.0,-28.8,-38.7,-13.3,-34.1,-44.4,81,75,72,30.04,29.85,0,0,0,0.00
2013-1-26,-27.0,-35.8,-45.2,-32.1,-41.3,-50.7,76,73,71,30.18,30.04,0,0,0,0.00
2013-1-27,-35.3,-42.7,-48.1,-40.9,-48.3,-53.8,73,71,70,30.62,30.18,0,0,0,0.00
2013-1-28,-13.3,-39.5,-58.0,-18.0,-44.9,-63.2,80,72,69,30.64,30.07,1,0,1,0.00
2013-1-29,-4.9,-10.3,-18.4,-9.3,-14.7,-23.2,82,80,78,30.07,29.90,4,0,4,0.00
2013-1-30,7.6,3.1,-7.2,3.7,-1.2,-11.6,85,82,79,29.95,29.69,1,0,1,0.00
2013-1-31,11.9,7.6,3.2,8.0,4.0,-0.4,87,85,83,30.12,29.72,1,0,1,0.00
2013-2-1,11.7,4.7,-3.2,8.3,1.3,-7.0,88,86,82,30.18,29.89,1,0,1,0.00
2013-2-2,22.0,9.5,-3.4,15.5,5.4,-7.2,89,83,74,29.89,29.53,2,0,2,0.00
2013-2-3,13.7,7.0,2.0,10.1,3.6,-1.6,88,86,83,29.54,29.33,0,0,0,0.00
2013-2-4,14.2,11.7,2.9,10.8,8.3,-0.7,88,86,85,29.67,29.65,1,0,1,0.00
2013-2-5,4.1,0.7,-2.7,0.5,-2.9,-6.5,87,85,84,29.68,29.62,0,0,0,0.00
2013-2-6,4.9,2.2,-2.5,0.8,-1.7,-6.3,85,84,82,29.75,29.61,0,0,0,0.00
2013-2-7,6.1,-0.9,-11.7,3.1,-4.7,-15.9,87,84,81,29.72,29.33,0,0,0,0.00
2013-2-8,6.8,3.4,-1.1,2.9,-0.4,-4.9,86,84,82,29.84,29.36,0,0,0,0.00
2013-2-9,27.7,16.7,-6.8,24.5,13.9,-11.0,94,89,82,29.82,29.05,2,0,2,0.00
2013-2-10,26.5,17.2,6.8,24.0,14.6,4.0,93,90,83,29.51,28.96,3,0,3,0.00
2013-2-11,23.2,16.4,5.6,19.0,13.4,2.5,91,88,83,29.74,29.51,1,0,1,0.00
2013-2-12,11.9,0.1,-8.3,8.5,-3.5,-12.4,87,85,82,29.79,29.73,0,0,0,0.00
2013-2-13,9.2,2.1,0.2,5.9,-1.4,-3.3,87,86,85,29.79,29.75,0,0,0,0.00
2013-2-14,19.8,14.1,1.6,17.3,11.6,-1.7,91,90,86,29.76,29.35,0,0,0,0.00
2013-2-15,18.7,7.3,-0.7,16.3,3.3,-4.8,91,83,77,30.07,29.44,2,0,2,0.00
2013-2-16,4.7,-5.2,-16.9,-0.7,-9.6,-21.6,84,81,78,30.13,29.89,1,0,1,0.00
2013-2-17,-1.1,-5.0,-9.4,-5.5,-9.4,-13.6,83,81,79,30.19,29.85,1,0,1,0.00
2013-2-18,-6.5,-16.4,-29.2,-11.0,-21.1,-34.8,82,79,75,30.28,30.15,0,0,0,0.00
2013-2-19,0.2,-18.3,-36.2,-7.6,-24.4,-41.8,82,73,69,30.16,29.59,5,0,5,0.00
2013-2-20,4.0,-2.4,-9.9,-4.8,-9.6,-15.9,77,71,61,29.60,29.39,5,1,5,0.00
2013-2-21,1.8,-0.5,-2.3,-7.5,-8.2,-9.3,75,70,62,29.36,29.35,6,2,6,0.00
2013-2-22,-4.0,-12.2,-20.3,-10.3,-17.8,-25.4,78,76,73,29.64,29.56,1,0,1,0.00
2013-2-23,7.4,-5.5,-20.5,-2.3,-11.7,-25.5,81,75,63,29.56,29.32,5,0,5,0.00
2013-2-24,2.0,-7.2,-14.6,-5.6,-12.8,-19.6,82,76,68,29.71,29.35,2,0,2,0.00
2013-2-25,14.0,-2.2,-13.7,6.2,-7.9,-18.7,82,77,66,29.77,29.71,2,0,2,0.00
2013-2-26,23.8,2.7,-11.2,12.4,-3.4,-15.9,83,76,58,29.78,29.51,2,0,2,0.00
2013-2-27,29.5,17.2,7.6,18.2,10.7,3.3,83,76,61,29.38,29.32,1,0,1,0.00
2013-2-28,30.6,12.7,-2.0,19.4,6.3,-6.2,86,76,57,29.49,29.37,1,0,1,0.00
2013-3-1,16.6,11.0,6.7,10.3,6.1,2.1,85,80,74,30.01,29.49,2,0,2,0.00
2013-3-2,16.4,6.4,-0.7,11.2,2.1,-4.8,85,82,77,30.16,30.01,2,0,2,0.00
2013-3-3,14.9,-2.0,-10.8,7.8,-6.5,-15.3,85,81,73,30.42,30.16,0,0,0,0.00
2013-3-4,26.1,4.9,-12.1,15.7,-0.9,-16.8,85,77,64,30.47,30.27,1,0,1,0.00
2013-3-5,29.3,14.0,3.2,17.9,7.5,-0.6,85,76,57,30.27,29.92,2,0,2,0.00
2013-3-6,17.5,6.6,-1.8,8.2,0.7,-6.2,84,77,63,29.93,29.87,2,0,2,0.00
2013-3-7,37.8,18.3,-2.3,22.0,9.0,-6.6,84,69,49,29.85,29.40,2,0,2,0.00
2013-3-8,42.1,25.9,17.5,24.0,18.6,12.0,85,74,47,29.62,29.46,2,0,2,0.20
2013-3-9,36.9,25.2,17.6,25.4,18.8,11.9,88,77,59,30.00,29.62,3,0,3,0.02
2013-3-10,28.4,22.1,9.5,25.7,17.7,5.4,90,83,62,30.29,30.00,3,0,3,0.00
2013-3-11,22.7,11.9,-1.4,14.0,5.8,-5.7,84,77,67,30.57,30.31,2,0,2,0.00
2013-3-12,24.1,4.9,-9.7,10.0,-3.8,-14.6,84,69,39,30.58,30.34,2,0,2,0.00
2013-3-13,17.5,4.1,-13.3,2.5,-10.0,-18.5,81,54,34,30.34,30.22,13,2,13,0.00
2013-3-14,7.0,1.5,-3.2,-10.8,-14.5,-18.6,50,46,42,30.25,30.15,7,3,7,0.00
2013-3-15,17.3,6.0,-0.5,-7.9,-11.5,-15.4,50,44,30,30.17,29.97,8,1,8,0.00
2013-3-16,25.6,12.1,-1.8,2.9,-5.2,-13.2,62,46,35,30.19,30.00,7,1,7,0.00
2013-3-17,15.3,3.2,-9.7,0.8,-7.0,-16.4,75,63,50,30.31,30.15,2,0,2,0.00
2013-3-18,17.1,3.4,-6.8,2.3,-6.1,-12.6,77,65,47,30.15,30.00,3,0,3,0.00
2013-3-19,16.9,0.1,-15.5,0.4,-9.8,-21.5,77,64,44,30.14,30.03,4,0,4,0.00
2013-3-24,10.1,7.9,-3.6,2.6,0.9,-12.2,77,73,66,30.04,29.80,2,0,2,0.00
2013-3-25,10.6,6.8,2.9,2.3,-0.4,-3.1,77,72,67,29.79,29.66,3,0,3,0.00
2013-3-26,10.1,-0.1,-10.4,-3.1,-8.5,-17.6,78,68,50,30.21,29.79,6,0,6,0.00
2013-3-27,13.9,-5.1,-25.6,-3.0,-15.6,-31.9,74,61,46,30.27,30.12,3,0,3,0.00
2013-3-28,34.7,8.7,-18.4,12.9,-4.2,-24.5,77,58,36,30.12,29.88,3,0,3,0.00
2013-3-29,44.8,25.2,8.8,19.8,10.7,1.3,75,57,33,29.91,29.83,3,0,3,0.12
2013-3-30,39.2,25.3,8.6,19.0,12.2,2.9,79,59,40,30.19,29.90,2,0,2,0.02
2013-3-31,41.8,28.1,21.2,27.4,18.2,13.0,80,67,50,30.24,30.13,4,0,4,0.06
2013-4-1,41.6,30.9,23.0,29.1,21.2,14.9,88,69,48,30.13,30.03,5,1,5,0.04
2013-4-2,36.5,29.7,21.4,19.5,16.2,12.8,70,58,48,30.15,30.07,3,0,3,0.00
2013-4-3,29.7,23.0,18.0,5.1,1.6,-0.3,46,39,32,30.46,30.39,10,3,10,0.00
2013-4-4,30.2,23.1,15.7,1.4,-0.2,-2.1,48,37,26,30.47,30.13,8,2,8,0.00
2013-4-5,19.1,14.2,5.6,-3.0,-5.2,-9.1,50,41,36,29.77,29.73,7,2,7,0.00
2013-4-6,21.4,10.2,1.3,0.6,-6.5,-11.3,55,47,34,29.73,29.58,3,1,3,0.00
2013-4-7,11.2,6.9,1.8,3.7,-0.7,-7.6,83,71,48,29.90,29.63,3,0,3,0.00
2013-4-8,16.4,2.8,-13.3,7.1,-2.9,-19.1,84,77,65,29.93,29.46,2,0,2,0.00
2013-4-9,14.9,10.0,7.0,8.0,5.0,2.9,84,80,71,29.47,29.15,3,0,3,0.00
2013-4-10,9.4,4.5,-3.6,3.3,-3.5,-11.2,79,70,55,29.96,29.45,2,0,2,0.00
2013-4-11,16.6,2.1,-17.1,0.6,-8.6,-23.3,76,62,45,30.24,29.96,3,0,3,0.00
2013-4-12,24.7,6.7,-12.2,6.6,-5.0,-18.3,76,60,40,30.34,30.24,4,0,4,0.00
2013-4-13,30.4,11.5,-9.7,8.6,-2.6,-15.6,78,55,34,30.47,30.34,3,0,3,0.00
2013-4-14,31.7,18.3,2.2,16.3,6.5,-6.0,73,60,44,30.56,30.47,3,0,3,0.02
2013-4-15,35.6,25.2,15.5,14.0,8.1,4.7,77,51,29,30.52,30.43,8,1,8,0.01
2013-4-16,31.0,21.9,9.4,15.6,7.0,-0.6,65,53,38,30.43,30.24,5,1,5,0.00
2013-4-17,36.5,27.8,9.5,14.4,8.9,3.2,75,45,35,30.37,30.26,7,1,7,0.00
2013-4-18,35.8,24.0,9.4,9.2,5.5,-0.2,69,46,30,30.42,30.35,11,2,11,0.00
2013-4-19,42.5,27.3,6.7,15.0,7.7,-0.2,75,46,29,30.47,30.39,5,1,5,0.00
2013-4-20,47.3,30.8,11.9,16.4,9.8,2.7,72,44,24,30.41,30.28,5,0,5,0.00
2013-4-21,46.6,39.9,25.4,17.9,13.3,9.4,59,34,25,30.36,30.31,4,1,4,0.00
2013-4-22,48.6,33.1,14.6,19.7,13.1,8.0,78,48,24,30.47,30.36,3,0,3,0.00
2013-4-23,49.1,28.7,19.8,23.2,15.3,12.2,76,59,35,30.40,30.19,2,0,2,0.00
2013-4-24,37.8,34.6,28.8,27.3,23.2,15.9,82,64,43,30.19,29.97,3,1,3,0.06
2013-4-25,35.5,27.8,20.2,24.1,5.4,-3.4,84,40,24,30.09,29.99,9,1,9,0.00
2013-4-26,34.4,24.0,10.6,20.7,10.5,1.7,76,57,37,30.01,29.61,4,1,4,0.00
2013-4-27,32.6,25.0,18.2,18.7,11.4,2.2,86,61,31,30.05,29.66,10,2,10,0.00
2013-4-28,38.2,31.9,20.5,16.4,9.8,-2.3,57,40,27,30.18,30.08,4,1,4,0.00
2013-4-29,34.6,29.4,21.4,27.8,20.6,11.4,91,70,57,30.13,30.08,4,1,4,0.00
2013-4-30,39.4,32.1,27.0,29.9,26.0,20.9,93,79,51,30.08,29.86,5,1,5,0.10
2013-5-1,42.7,30.6,25.4,23.9,20.0,13.4,84,66,45,29.86,29.64,7,2,7,0.01
2013-5-2,39.1,30.4,22.7,22.6,18.1,13.0,70,60,49,29.91,29.70,4,1,4,0.00
2013-5-3,45.2,33.2,26.3,30.6,26.2,21.1,88,76,54,29.95,29.82,5,1,5,0.06
2013-5-4,35.1,27.4,22.3,24.7,20.9,18.3,88,77,60,29.98,29.90,4,0,4,0.01
2013-5-5,42.3,36.2,23.8,22.7,16.3,10.6,82,46,30,30.13,29.98,5,1,5,0.00
2013-5-6,47.0,33.7,18.2,19.7,15.0,10.6,75,50,26,30.20,30.11,5,1,5,0.00
2013-5-7,49.7,37.9,24.3,24.0,18.6,14.6,76,48,31,30.26,30.20,5,1,5,0.00
2013-5-8,52.7,39.6,22.7,24.9,19.0,14.3,80,48,23,30.32,30.23,5,1,5,0.00
2013-5-9,59.4,44.1,25.2,26.7,20.9,18.3,80,45,22,30.36,30.19,4,1,4,0.00
2013-5-10,60.5,49.2,35.3,31.1,23.2,17.1,63,39,22,30.21,29.95,2,0,2,0.00
2013-5-11,52.2,38.6,32.8,29.1,23.7,18.5,67,55,40,29.94,29.82,1,0,1,0.00
2013-5-12,53.1,47.1,38.2,31.5,28.4,24.1,70,49,34,29.62,29.47,6,1,6,0.00
2013-5-13,40.0,31.7,24.3,27.9,10.1,4.8,65,41,31,29.69,29.50,5,1,5,0.00
2013-5-14,43.2,33.7,22.7,19.1,14.4,9.0,72,47,30,29.67,29.62,5,1,5,0.00
2013-5-15,51.7,36.4,20.0,22.1,17.0,12.8,78,49,25,29.70,29.62,6,1,6,0.00
2013-5-16,55.6,43.2,27.0,28.5,22.5,16.7,72,46,24,29.67,29.42,5,1,5,0.00
2013-5-17,32.8,29.7,26.8,26.0,24.0,22.0,83,79,76,29.67,29.58,4,1,4,0.00
2013-5-18,35.5,28.8,22.9,22.3,12.2,5.6,85,52,31,30.19,29.67,7,1,7,0.03
2013-5-19,43.2,31.2,22.7,15.1,11.4,6.9,60,45,24,30.57,30.19,4,0,4,0.00
2013-5-20,56.0,42.8,25.4,22.0,16.1,12.8,70,38,20,30.63,30.41,7,1,7,0.00
2013-5-21,62.8,47.9,26.6,24.1,17.9,12.8,69,35,15,30.45,30.12,6,1,6,0.00
2013-5-22,69.3,52.2,29.9,29.6,24.5,18.1,75,38,18,30.13,29.94,5,1,5,0.00
2013-5-23,65.2,53.1,36.4,40.3,33.9,24.8,71,49,34,30.10,30.00,7,1,7,0.00
2013-5-24,71.5,58.1,38.0,45.2,36.7,31.8,86,50,25,30.13,29.96,5,1,5,0.00
2013-5-25,79.2,59.8,41.8,38.4,32.3,25.4,70,39,17,29.98,29.80,5,0,5,0.00
2013-5-26,79.9,57.5,38.0,38.1,32.9,28.4,75,45,18,29.88,29.79,6,1,6,0.00
2013-5-27,74.5,74.5,74.5,39.1,39.1,38.8,28,28,28,29.74,29.74,0,0,0,0.00
2013-5-28,83.0,74.5,54.4,45.4,39.0,32.8,60,30,18,29.79,29.66,6,1,6,0.00
2013-5-29,83.7,73.1,66.4,36.4,35.0,33.0,31,25,17,29.69,29.66,6,1,6,0.00
2013-5-30,85.9,68.9,47.0,44.2,36.1,20.4,74,35,12,29.84,29.69,4,1,4,0.00
2013-5-31,83.3,64.9,45.9,50.2,40.1,22.5,80,47,15,29.97,29.84,4,0,4,0.00
2013-6-1,82.1,57.4,44.1,47.0,40.5,36.8,80,56,25,30.06,29.95,4,0,4,0.00
2013-6-2,82.6,68.4,50.2,46.7,41.5,37.9,66,41,23,30.05,29.85,4,1,4,0.00
2013-6-3,60.8,57.5,52.6,49.9,47.5,44.3,86,69,61,29.88,29.64,2,0,2,0.02
2013-6-4,63.2,54.0,47.9,50.0,46.3,42.8,91,76,49,29.64,29.55,3,0,3,0.04
2013-6-5,59.6,51.5,45.7,49.7,44.9,41.2,93,79,61,29.86,29.61,5,1,5,0.12
2013-6-6,67.7,55.4,44.5,51.5,45.6,41.9,95,72,44,29.89,29.77,6,1,6,0.06
2013-6-7,75.6,59.0,42.3,52.3,43.0,38.7,91,60,31,29.91,29.79,4,0,4,0.00
2013-6-8,78.8,62.5,46.1,50.8,43.1,40.0,87,53,29,30.10,29.91,5,0,5,0.00
2013-6-9,72.9,60.6,48.2,47.3,43.1,39.4,83,55,33,30.21,30.10,5,1,5,0.00
2013-6-10,57.1,51.8,49.1,48.0,44.8,42.3,89,77,64,30.26,30.20,3,0,3,0.01
2013-6-11,67.5,62.4,56.3,47.4,41.9,37.9,65,48,36,30.25,30.11,7,1,7,0.00
2013-6-12,73.6,63.7,43.7,42.0,34.5,29.2,70,36,22,30.13,30.03,7,1,7,0.00
2013-6-13,78.1,54.0,41.8,42.3,37.4,33.1,79,56,25,30.13,30.08,4,0,4,0.00
2013-6-14,76.7,70.5,61.2,45.4,37.7,34.6,56,31,22,30.16,30.13,1,0,1,0.00
2013-6-15,85.7,66.0,47.2,49.5,43.3,38.1,75,48,22,30.24,30.14,3,0,3,0.00
2013-6-16,87.5,77.4,56.5,53.7,51.3,46.5,79,43,29,30.24,30.13,6,1,6,0.00
2013-6-17,88.6,75.8,59.8,54.9,41.2,29.5,77,34,15,30.20,30.08,8,2,8,0.00
2013-6-18,88.4,75.7,59.2,45.4,41.0,36.6,48,31,18,30.10,29.87,7,1,7,0.00
2013-6-19,89.3,74.9,55.8,48.1,42.7,36.2,66,35,18,29.91,29.79,5,1,5,0.00
2013-6-20,87.7,72.5,53.5,48.7,44.5,38.8,74,42,21,29.92,29.77,2,0,2,0.00
2013-6-21,68.9,64.4,58.0,53.6,49.9,45.8,76,60,47,29.89,29.77,2,0,2,0.02
2013-6-22,77.4,70.8,57.2,49.7,44.4,40.2,75,40,31,29.87,29.69,4,1,4,0.00
2013-6-23,86.8,67.6,47.9,52.2,43.6,32.8,80,47,17,29.71,29.56,5,0,5,0.00
2013-6-24,89.6,82.4,65.7,52.7,46.8,41.0,51,30,19,29.64,29.57,5,1,5,0.00
2013-6-25,93.6,80.0,65.2,57.8,51.2,47.4,63,40,23,29.66,29.59,5,1,5,0.00
2013-6-26,92.3,86.7,75.1,55.4,51.3,47.5,49,31,23,29.70,29.63,2,0,3,0.00
2013-6-27,85.7,74.5,61.9,60.6,57.8,52.8,80,57,41,29.97,29.69,3,1,3,0.00
2013-6-28,81.7,71.6,60.5,60.1,55.8,51.9,79,59,41,30.04,29.97,2,0,2,0.00
2013-6-29,78.1,70.0,60.8,60.0,56.3,53.1,82,63,44,30.01,29.88,3,0,3,0.00
2013-6-30,89.3,71.5,54.7,60.0,53.6,48.5,83,56,29,29.89,29.62,3,0,3,0.00
2013-7-1,82.1,68.7,56.3,53.2,48.2,43.8,77,50,28,29.65,29.42,5,0,5,0.01
2013-7-2,74.3,59.9,50.6,53.8,47.3,39.2,88,67,32,29.72,29.52,4,0,4,0.07
2013-7-3,71.1,58.0,45.4,50.3,44.5,39.2,89,64,35,29.90,29.72,4,0,4,0.00
2013-7-4,74.5,59.5,47.7,47.4,42.9,38.4,80,57,32,30.01,29.86,5,0,5,0.00
2013-7-5,68.8,57.8,45.5,49.4,44.2,40.7,88,63,39,30.06,29.94,2,0,3,0.00
2013-7-6,76.3,62.1,42.7,49.5,43.9,38.7,88,56,30,29.95,29.73,5,0,5,0.00
2013-7-7,78.7,62.6,47.0,49.0,43.9,39.8,83,53,30,29.73,29.51,6,1,6,0.00
2013-7-8,63.4,55.6,47.9,53.0,48.6,43.3,93,78,61,29.73,29.54,2,0,2,0.06
2013-7-9,68.6,57.7,50.8,51.8,48.7,46.1,93,74,46,29.99,29.72,4,0,4,0.02
2013-7-10,60.8,54.9,51.1,52.4,49.0,47.6,92,81,68,30.05,29.97,3,0,3,0.21
2013-7-11,69.1,61.9,50.9,54.8,49.3,45.8,90,65,47,30.07,30.03,4,1,4,0.00
2013-7-12,72.5,55.9,50.2,48.7,45.3,43.5,79,69,42,30.05,30.03,4,0,4,0.00
2013-7-16,67.3,63.8,61.6,55.8,53.8,52.1,75,70,61,30.11,30.09,2,0,2,0.00
2013-7-17,72.7,61.9,57.8,53.6,52.1,49.3,85,71,46,30.10,30.03,2,0,2,0.00
2013-7-18,75.2,63.5,54.4,57.1,52.8,49.8,90,70,42,30.14,30.03,2,0,2,0.36
2013-7-19,62.6,58.8,56.0,57.7,55.6,51.5,94,89,79,30.11,30.05,4,1,4,0.23
2013-7-20,64.1,56.3,52.9,54.3,52.1,50.6,94,86,68,30.11,30.08,3,1,3,0.09
2013-7-21,70.6,59.9,52.0,54.1,50.6,47.6,88,72,55,30.16,30.09,1,0,1,0.00
2013-7-22,75.6,60.9,43.2,54.0,48.5,40.5,92,67,43,30.21,30.09,2,0,2,0.00
2013-7-23,78.8,67.1,52.9,57.5,52.7,49.4,88,63,41,30.12,30.01,3,0,3,0.00
2013-7-24,75.2,66.5,56.9,59.4,56.0,52.1,90,70,54,30.03,29.95,1,0,1,0.00
2013-7-25,74.5,64.8,57.2,58.8,53.4,46.3,88,68,49,30.05,29.95,5,0,5,0.02
2013-7-26,76.1,64.1,49.1,54.0,49.6,44.8,88,62,37,30.17,30.05,4,0,4,0.00
2013-7-27,79.9,65.6,50.8,60.6,53.9,47.6,91,68,45,30.24,30.17,3,0,3,0.00
2013-7-28,87.3,71.6,52.6,60.8,54.3,48.8,92,58,33,30.20,30.03,4,0,4,0.00
2013-7-29,82.1,71.6,61.2,59.1,54.8,50.0,74,57,40,30.13,30.05,4,1,4,0.00
2013-7-30,79.9,65.9,51.1,58.2,52.2,48.0,91,64,44,30.19,30.10,6,0,6,0.00
2013-7-31,82.6,66.3,46.8,57.6,50.8,43.5,91,61,38,30.17,30.01,4,0,4,0.00
2013-8-1,85.3,61.2,49.5,58.4,50.0,45.1,87,69,34,30.03,29.80,2,0,2,0.00
2013-8-2,85.7,69.9,52.7,57.6,49.2,44.4,82,52,28,29.86,29.70,3,0,4,0.00
2013-8-3,72.0,57.6,50.6,53.5,48.9,44.3,85,73,50,29.70,29.64,1,0,1,0.00
2013-8-8,63.9,61.5,59.2,48.8,47.0,45.6,63,59,55,29.64,29.62,1,0,1,0.00
2013-8-9,67.0,56.9,49.1,50.0,45.4,40.8,78,66,49,29.69,29.63,2,0,2,0.00
2013-8-10,70.2,60.5,50.0,52.0,47.8,44.8,86,64,47,29.97,29.68,3,0,3,0.00
2013-8-11,77.8,61.0,43.4,52.4,47.0,40.1,89,63,34,30.05,29.91,3,0,3,0.00
2013-8-12,74.3,62.4,52.6,57.9,52.5,47.1,87,71,53,30.05,29.95,3,0,3,0.00
2013-8-19,56.2,55.3,54.4,53.7,52.9,51.8,93,92,87,29.64,29.62,2,0,2,0.04
2013-8-20,54.9,51.9,46.8,52.9,50.3,45.2,96,94,92,29.76,29.64,2,0,2,0.61
2013-8-22,61.2,56.5,53.6,51.0,50.1,49.3,87,79,66,29.59,29.57,1,0,1,0.00
2013-8-23,56.3,52.1,45.7,53.6,50.1,43.8,96,93,86,29.67,29.52,3,0,3,0.75
2013-8-24,59.4,45.4,40.0,47.6,40.4,32.1,95,84,57,29.93,29.67,3,0,3,0.00
2013-8-25,40.0,37.1,34.6,33.3,31.4,29.9,84,80,74,29.93,29.92,2,0,2,0.00
2013-8-28,58.7,53.5,47.0,47.3,45.4,43.6,90,75,60,29.73,29.70,2,0,2,0.00
2013-8-29,56.7,50.4,45.4,51.0,47.2,42.7,94,89,81,29.90,29.69,1,0,1,0.10
2013-8-30,55.8,50.9,46.4,51.7,46.3,41.0,96,85,61,30.01,29.90,3,0,3,0.05
2013-8-31,52.0,44.0,38.9,43.7,39.2,34.1,93,84,56,30.03,29.96,4,0,4,0.00
2013-9-1,52.2,43.4,32.8,38.9,34.3,29.9,90,72,48,29.96,29.71,4,1,4,0.00
2013-9-2,58.9,48.3,43.9,54.5,45.2,38.6,94,89,72,29.71,29.42,2,0,2,0.20
2013-9-3,70.2,56.2,45.4,55.1,49.3,44.0,97,80,46,29.47,29.23,3,0,3,0.02
2013-9-4,59.9,49.2,40.5,52.5,46.2,39.1,96,90,63,29.69,29.40,5,0,5,0.10
2013-9-5,63.0,50.1,38.9,52.2,45.1,37.5,96,84,55,30.00,29.71,2,0,2,0.00
2013-9-6,51.7,46.2,36.9,47.4,43.6,34.9,95,90,81,30.04,29.50,4,0,4,0.06
2013-9-7,55.8,47.7,41.0,50.8,45.3,39.7,96,91,81,29.72,29.51,2,0,2,0.01
2013-9-8,53.6,48.7,46.1,52.5,47.4,44.7,96,95,94,29.83,29.51,2,0,2,0.18
2013-9-9,60.5,49.7,37.4,52.4,45.7,36.4,97,87,68,29.86,29.71,2,0,2,0.00
2013-9-10,69.7,53.3,40.5,54.5,45.0,38.6,95,76,44,29.75,29.69,3,0,3,0.00
2013-9-11,49.0,46.3,40.5,47.6,44.9,39.2,97,95,88,29.85,29.60,3,0,3,0.73
2013-9-12,58.5,46.2,37.6,52.0,44.1,36.5,97,93,76,29.99,29.85,3,0,3,0.01
2013-9-13,50.6,43.6,35.3,48.6,42.0,33.9,97,94,90,29.98,29.88,1,0,1,0.01
2013-9-14,52.7,46.3,35.3,48.3,43.2,33.1,97,89,66,30.11,29.97,2,0,2,0.04
2013-9-15,52.2,38.0,25.9,41.2,32.0,24.1,95,81,52,30.17,30.00,4,0,4,0.01
2013-9-16,56.0,42.2,29.2,35.4,28.6,24.9,87,61,37,30.01,29.73,8,1,8,0.00
2013-9-17,44.8,36.9,29.7,28.8,25.6,22.0,73,64,50,29.73,29.66,5,1,5,0.00
2013-9-18,39.1,33.6,28.4,33.1,29.0,24.8,91,83,73,29.78,29.69,1,0,1,0.04
2013-9-19,43.9,32.2,26.3,35.5,27.3,23.5,93,83,64,29.77,29.63,2,0,2,0.00
2013-9-20,34.6,28.7,24.5,29.9,25.5,21.7,94,88,70,29.64,29.25,2,0,2,0.00
2013-9-21,31.5,28.7,26.3,24.4,21.9,20.8,85,76,68,29.27,29.23,0,0,0,0.00
2013-9-22,33.8,30.5,27.9,29.8,26.2,22.6,93,84,77,29.56,29.27,2,0,2,0.01
2013-9-23,28.1,26.6,25.0,26.3,24.7,23.1,93,92,92,29.71,29.56,0,0,0,0.00
2013-10-10,38.0,35.2,31.0,31.8,30.3,27.5,89,82,76,29.72,29.67,3,0,3,0.00
2013-10-13,42.5,40.2,38.9,37.4,36.2,33.5,91,86,70,29.62,29.48,2,1,4,0.05
2013-10-14,40.0,34.3,30.2,37.9,32.4,28.4,95,93,90,29.78,29.62,2,0,3,0.00
2013-10-15,47.2,41.2,32.0,40.3,37.3,30.2,95,86,74,29.94,29.85,2,0,2,0.02
2013-10-16,52.0,44.8,39.8,43.0,39.3,36.3,92,81,67,30.11,29.94,1,0,2,0.00
2013-10-17,45.7,40.2,37.4,44.4,37.0,34.5,95,88,80,30.00,29.75,1,0,2,0.02
2013-10-18,50.4,40.6,32.2,42.9,36.7,30.0,96,86,70,29.65,29.60,1,0,2,0.00
2013-10-19,44.8,35.8,29.2,33.3,30.1,27.4,95,81,56,29.60,29.40,2,0,4,0.00
2013-10-20,46.4,36.9,29.3,38.4,32.3,26.8,93,84,71,29.92,29.73,1,0,1,0.00
2013-10-21,35.6,27.7,22.9,31.2,25.2,20.9,94,90,80,30.13,29.91,1,0,1,0.00
2013-10-22,34.2,25.3,20.5,29.6,22.4,18.2,94,89,79,30.21,30.12,1,0,1,0.00
2013-10-23,29.5,24.9,20.0,26.1,22.6,17.5,93,91,87,30.19,29.91,1,0,1,0.00
2013-10-24,34.6,28.1,18.7,25.5,22.4,16.2,91,80,62,30.01,29.71,2,0,4,0.00
2013-10-25,39.2,31.3,22.0,29.1,23.5,18.1,87,73,63,30.19,29.72,2,0,2,0.00
2013-10-26,31.7,21.4,14.2,25.9,18.2,11.6,92,87,79,30.53,30.19,1,0,2,0.00
2013-10-27,38.5,33.7,20.7,36.4,26.7,18.7,93,76,60,30.38,29.68,2,0,4,0.06
2013-10-28,43.7,40.1,37.1,39.1,37.3,34.0,94,90,82,29.67,29.17,2,1,6,0.06
2013-10-29,37.8,34.1,26.6,36.5,32.8,25.4,96,95,92,29.56,29.30,2,0,4,0.18
2013-10-30,27.4,26.5,25.7,26.1,25.3,24.5,95,95,95,29.52,29.44,0,0,1,0.00
2013-10-31,27.7,26.2,23.2,26.2,24.7,21.7,95,94,94,29.72,29.39,1,0,1,0.00
2013-11-1,27.2,26.0,24.5,25.7,24.3,22.5,94,93,92,30.12,29.72,0,0,0,0.00
2013-11-2,27.2,20.0,13.3,23.8,17.8,11.0,93,91,87,30.03,29.83,1,0,2,0.00
2013-11-3,25.9,16.5,12.6,24.1,14.4,10.3,93,91,90,29.86,29.66,0,0,0,0.00
2013-11-4,22.1,18.1,13.0,20.2,16.1,10.9,93,92,91,29.56,29.50,0,0,0,0.00
2013-11-7,17.6,8.1,-4.1,8.8,2.3,-7.9,84,77,67,30.02,29.93,5,0,5,0.00
2013-11-8,10.3,-0.1,-10.6,7.4,-3.7,-14.7,89,85,81,30.25,30.02,1,0,1,0.00
2013-11-9,25.7,20.7,7.2,23.2,18.0,4.3,92,89,76,30.15,29.76,2,0,2,0.00
2013-11-10,31.3,27.8,24.8,30.1,26.3,22.9,96,94,92,29.94,29.76,2,0,2,0.00
2013-11-11,25.2,13.7,-0.4,23.7,11.5,-3.4,94,91,86,30.35,29.94,0,0,0,0.00
2013-11-12,11.7,4.1,-4.3,9.1,1.2,-8.0,90,88,84,30.35,30.08,0,0,0,0.00
2013-11-13,38.9,17.9,8.1,37.2,16.1,5.5,97,92,89,30.08,29.64,9,0,9,0.00
2013-11-14,40.5,33.0,24.8,37.4,30.0,19.3,94,89,78,29.98,29.63,9,2,9,0.01
2013-11-16,13.0,7.4,-4.5,10.4,4.5,-8.2,90,88,84,30.37,30.18,0,0,0,0.00
2013-12-23,71.6,71.0,70.6,47.9,47.0,43.6,44,43,39,30.24,30.22,0,0,0,0.00
2013-12-24,70.9,27.0,-29.2,46.0,6.2,-39.5,57,43,22,30.26,30.06,0,0,0,0.62
2013-12-25,-27.2,-32.9,-39.2,-36.9,-41.5,-46.6,65,61,57,30.09,30.02,0,0,0,0.00
2013-12-26,-37.1,-42.4,-44.2,-44.7,-49.5,-51.4,66,65,63,30.17,30.08,0,0,0,0.00
2013-12-27,-30.6,-41.7,-49.0,-37.6,-48.6,-55.7,69,66,65,30.20,30.15,0,0,0,0.00
2013-12-28,2.9,-11.0,-30.8,-3.0,-17.5,-38.1,77,72,67,30.18,30.07,0,0,0,0.00
2013-12-29,4.1,-4.9,-14.0,-1.4,-10.3,-19.8,81,77,75,30.14,29.96,0,0,0,0.00
2013-12-30,-13.3,-16.3,-18.5,-19.3,-22.1,-24.7,76,75,73,29.96,29.74,0,0,0,0.00
2013-12-31,-7.7,-11.7,-18.9,-12.8,-16.9,-24.7,82,77,74,29.84,29.60,0,0,0,0.00
2014-1-1,17.6,9.2,-2.3,14.4,5.6,-6.7,88,85,81,29.55,29.31,0,0,0,0.00
2014-1-2,9.2,4.8,-5.0,5.9,1.0,-9.4,86,84,81,30.12,29.55,0,0,0,0.00